Terminal Aerodrome Forecast
Issued by NWS Upton, NY

Home | Current Version | Previous Version | Text Only | Print | Product List | Glossary On
Versions: 1 2 3 4 5 6 7 8 9 10 11 12 13 14 15 16 17 18 19 20 21 22 23 24 25 26
000
FTUS41 KOKX 040830 AAA
TAFEWR
TAF AMD
KEWR 040830Z 0409/0512 VRB03KT P6SM SKC
     FM041300 23007KT P6SM SKC
     FM041700 21012G18KT P6SM FEW080 SCT250
     FM042000 21015G22KT P6SM FEW080 SCT250
     FM050200 21011KT P6SM FEW070 SCT250
     FM050600 22009KT P6SM FEW070=

USA.gov is the U.S. government's official web portal to all federal, state and local government web resources and services.